Location: Patanui River
(41.1333°S, 176.0167°E)
Time: 22:12:25
(UTC+00:00)

Daily predictions for brighter satellites

Satellite Brightness Start Highest point End
(mag) Time Altitude Azimuth Time Altitude Azimuth Time Altitude Azimuth
Meteor 2-5 Rocket 4.1 12:00:23 10° SSW 12:06:11 53° W 12:07:00 49° WNW
Meteor 2-8 Rocket 4.3 12:09:11 63° N 12:10:17 88° E 12:16:34 10° S
ARIANE 5 R/B 3.0 12:05:55 10° SSE 12:09:52 54° ESE 12:09:52 54° ESE
ATLAS 5 CENTAUR R/B 4.1 12:09:40 10° WSW 12:11:06 13° W 12:11:06 13° W
Cosmos 921 Rocket 3.6 12:17:05 48° SW 12:17:05 48° SW 12:20:52 10° S
Spot 4 4.1 12:12:30 10° SSE 12:17:15 58° E 12:17:15 58° E
Cosmos 2082 Rocket 4.0 12:14:44 10° S 12:19:31 26° SE 12:23:31 13° ENE
Cosmos 2278 Rocket 2.3 12:19:53 58° NE 12:20:14 59° ENE 12:25:52 10° SSE
Cosmos 1934 Rocket 4.0 12:24:58 57° NW 12:26:11 73° W 12:32:29 10° S
Cosmos 1605 Rocket 4.1 12:28:11 54° NNE 12:29:34 70° E 12:35:59 10° SSE
Cosmos 1023 Rocket 4.4 12:29:25 71° WNW 12:29:52 77° WSW 12:35:12 10° SSE
ACS3 Solar Sail 4.5 12:31:33 10° ESE 12:32:25 10° ESE 12:33:16 10° SE
Cosmos 2292 Rocket 4.1 12:30:29 10° S 12:35:25 77° W 12:36:01 69° NNW
Cosmos 839 Rocket 4.0 12:30:13 10° SW 12:36:17 64° WNW 12:37:09 58° NNW
CZ-2D R/B 4.4 12:34:57 10° ENE 12:38:38 19° ESE 12:42:21 10° SSE
Meteor 1-21 Rocket 4.3 12:35:38 10° S 12:41:31 73° E 12:42:38 57° NE
SJ 16-02 3.2 12:42:58 21° E 12:42:58 21° E 12:45:57 10° SE
Aureole 3 3.9 12:38:53 10° S 12:44:55 86° E 12:45:30 72° NNE
Cosmos 407 Rocket 3.5 12:47:23 67° NE 12:47:50 72° ENE 12:53:13 10° SSE
IDEFIX/ARIANE 42P 2.7 12:49:49 54° NE 12:50:52 68° ESE 12:56:10 10° S
MSX 3.9 12:50:22 49° NE 12:51:56 73° ESE 12:57:46 10° S
Timation 2 Rocket 3.9 12:51:08 55° NW 12:52:30 75° WSW 12:58:43 10° SSE
Nimbus 7 Rocket 4.4 12:53:09 59° NNW 12:54:10 71° WNW 13:00:09 10° SSW
Cosmos 1340 Rocket 3.4 12:56:53 51° SSW 12:56:53 51° SSW 13:00:04 10° S
Cosmos 1441 Rocket 4.4 12:57:46 10° S 13:00:20 34° SE 13:00:20 34° SE
Cosmos 1733 Rocket 3.2 13:01:51 64° WSW 13:01:51 64° WSW 13:06:09 10° S
USA 215 4.1 12:56:32 10° ESE 13:02:17 32° NE 13:03:08 31° NE
Resurs 1-4 Rocket 3.6 12:59:59 17° ENE 13:03:08 31° ESE 13:07:45 10° S
ALOS 2 3.1 13:02:47 10° S 13:07:07 49° WSW 13:07:14 49° WSW
Cosmos 1656 Rocket 4.3 13:12:37 37° NE 13:13:33 41° ENE 13:18:39 10° SE
Cosmos 1459 Rocket 4.4 13:16:25 37° NE 13:18:33 53° E 13:24:31 10° SSE
ALOS 4.1 13:16:18 14° ENE 13:19:11 25° ESE 13:22:58 10° SSE
SeaSat 1 3.6 13:17:15 17° ENE 13:20:41 41° ESE 13:25:21 10° SSW
CZ-2C R/B 3.4 13:15:34 10° SSE 13:20:54 45° E 13:22:35 35° NE
Cosmos 2221 Rocket 4.1 13:17:46 10° S 13:22:18 55° E 13:23:15 45° ENE
Cosmos 1908 Rocket 3.5 13:27:22 66° NE 13:27:42 70° E 13:32:07 10° SSE
Envisat 4.2 13:27:09 19° NE 13:30:16 39° ESE 13:35:01 10° S
Cosmos 371 Rocket 3.5 13:30:27 52° NE 13:31:09 58° ENE 13:35:54 10° SSE
Cosmos 1025 Rocket 2.9 13:29:09 10° S 13:33:36 86° E 13:34:04 71° NNE
Cosmos 1943 Rocket 3.4 13:34:01 25° W 13:36:12 32° WSW 13:41:18 10° S
Cosmos 1674 Rocket 3.6 13:34:50 10° SSW 13:39:17 60° W 13:39:27 60° WNW
Cosmos 468 Rocket 4.0 13:39:54 10° SSW 13:45:16 83° ESE 13:47:27 37° NNE
Cosmos 1763 Rocket 3.7 13:40:56 10° SSW 13:46:04 50° WNW 13:46:42 47° NW
Cosmos 1378 Rocket 4.5 13:42:47 10° SSW 13:46:26 33° W 13:46:26 33° W
FENGYUN 3A 3.8 13:46:15 47° NW 13:47:21 56° W 13:52:44 10° SSW
Cosmos 2369 Rocket 2.9 13:50:28 30° NNE 13:52:39 44° ENE 13:58:00 10° SE
Lacrosse 4 Rocket 3.3 13:52:48 16° ENE 13:53:44 18° ENE 13:56:29 10° ESE
CENTAUR R/B 3.8 13:51:01 25° NNE 13:55:28 42° ENE 14:02:19 10° SE
Cosmos 2251 Rocket 3.8 13:54:25 41° WNW 13:55:54 54° WSW 14:01:05 10° S
Cosmos 304 Rocket 3.8 13:57:25 51° NW 13:58:32 71° WSW 14:03:20 10° SSE
NPP 4.3 13:58:03 35° WNW 13:58:48 37° W 14:03:49 10° SSW
COSMOS 2441 4.5 13:59:13 48° NW 14:00:06 57° W 14:04:54 10° SSW
Cosmos 540 Rocket 3.9 13:58:31 10° SW 14:03:21 40° WNW 14:03:58 39° WNW
Cosmos 2082 Rocket 2.5 13:58:18 10° SW 14:03:50 49° WNW 14:05:17 40° NNW
Cosmos 2278 Rocket 3.9 14:01:41 15° W 14:04:43 22° SW 14:09:09 10° S
COSMOS 2406 3.1 14:02:33 10° SSW 14:08:22 86° WNW 14:12:14 22° NNE
ACS3 Solar Sail 2.1 14:08:42 14° NNE 14:14:05 66° ESE 14:20:07 10° S
Cosmos 1300 Rocket 3.7 14:13:36 47° NW 14:14:40 63° W 14:19:07 10° S
Cosmos 1812 2.9 14:16:32 38° ENE 14:16:48 39° E 14:19:33 10° SSE
CZ-2D R/B 2.2 14:15:36 33° N 14:18:02 65° WNW 14:23:33 10° SSW
SJ 16-02 2.3 14:19:29 29° W 14:20:34 33° WSW 14:24:32 10° S
Iridium 4 Rocket 4.2 14:16:35 20° NNE 14:20:37 62° E 14:26:25 10° S
Cosmos 2233 Rocket 4.1 14:17:42 26° N 14:21:24 77° E 14:27:41 10° S
ADEOS II 2.0 14:18:50 26° N 14:21:51 83° WNW 14:27:11 10° SSW
Cosmos 1802 Rocket 4.2 14:24:26 31° NNW 14:27:28 60° W 14:33:46 10° S
Lacrosse 5 rocket 1.2 14:27:00 43° W 14:27:40 52° SW 14:31:01 10° SE
IDEFIX/ARIANE 42P 4.4 14:30:31 15° W 14:30:48 15° W 14:33:43 10° WSW
Cosmos 1869 3.0 14:30:26 46° NNW 14:31:25 83° W 14:35:08 10° S
Cosmos 2084 3.3 14:32:15 41° NW 14:33:36 80° SW 14:37:46 10° SSE
ATLAS 2AS CENTAUR R/B 2.9 14:29:30 10° SW 14:37:00 89° ESE 14:44:23 10° NNE
AQUA 4.1 14:33:47 12° NNE 14:38:11 68° ESE 14:42:56 10° S
Cosmos 2263 4.2 14:37:07 27° NNW 14:40:20 80° ENE 14:46:01 10° SSE
Cosmos 2058 4.0 14:36:34 10° S 14:40:22 40° ESE 14:44:06 10° NNE
USA 306 3.8 14:39:52 25° NNE 14:40:56 29° NE 14:44:04 10° ESE
FALCON 9 R/B 4.2 14:32:59 21° NW 14:41:46 36° N 14:47:41 10° ENE
Resurs 1-4 Rocket 2.8 14:41:01 27° NW 14:42:46 34° W 14:47:37 10° SSW
Cosmos 2297 3.7 14:39:54 28° NNW 14:43:05 76° WSW 14:48:53 10° SSE
Cosmos 1850 Rocket 4.1 14:39:57 25° N 14:43:06 79° ENE 14:48:31 10° SSE
CZ-2C R/B 4.2 14:40:59 10° NE 14:44:59 29° ESE 14:48:58 10° S
USA 215 3.4 14:39:01 10° SE 14:45:36 73° SW 14:50:28 19° WNW
H-2A R/B 2.1 14:48:34 30° NNW 14:50:10 47° W 14:54:05 10° SSW
Cosmos 2061 Rocket 4.1 14:46:14 22° NNW 14:50:40 73° W 14:57:11 10° S
H-2A R/B 2.1 14:46:33 14° N 14:51:12 76° WNW 14:56:43 10° SSW
Cosmos 841 Rocket 3.7 14:49:05 10° SSW 14:54:05 48° WNW 14:57:39 18° N
Tsikada Rocket 4.1 14:48:31 10° SSW 14:54:52 69° W 15:00:30 14° N
ALOS 3.0 14:54:22 25° NW 14:55:58 32° W 15:00:07 10° SSW
ADEOS Rocket 3.2 14:52:23 15° N 14:57:56 56° W 15:03:57 10° SSW
SeaSat 1 3.4 14:56:50 23° NW 14:58:09 26° WNW 15:02:17 10° SW
CZ-2C R/B 4.1 14:56:19 10° S 15:00:49 26° WSW 15:04:02 16° WNW
Cosmos 968 Rocket 4.0 15:05:12 21° NW 15:08:23 46° WSW 15:13:22 10° S
Envisat 4.2 15:07:16 20° NW 15:09:17 25° W 15:13:29 10° SW
Cosmos 1975 Rocket 3.9 15:05:44 10° SSW 15:09:37 32° W 15:11:46 21° NW
Cosmos 2151 Rocket 3.6 15:08:54 14° N 15:12:39 84° E 15:17:10 10° S
Cosmos 292 Rocket 3.8 15:12:25 16° NNW 15:16:12 83° ENE 15:20:59 10° SSE
H-2A R/B 2.5 15:12:40 10° SSE 15:16:42 73° ENE 15:20:24 12° N
USA 267 3.8 15:11:20 10° ENE 15:17:48 65° SE 15:24:20 10° SW
ARGOS 3.2 15:15:15 10° NNE 15:20:37 89° WNW 15:26:05 10° SSW
Cosmos 1400 Rocket 3.4 15:20:28 19° NW 15:22:47 39° WSW 15:26:28 10° S
MOZ.5/SAFIR/RUBIN 5/SL-8 4.0 15:19:27 10° SSE 15:24:11 72° ENE 15:28:53 10° N
Lacrosse 4 Rocket 2.1 15:28:18 15° WNW 15:31:14 39° WSW 15:35:08 10° SSE
Cosmos 2369 Rocket 3.5 15:32:14 11° WNW 15:36:47 28° SW 15:41:40 10° S
Okean 1 Rocket 3.1 15:33:32 10° N 15:38:00 81° W 15:42:34 10° S
MOS 1-B Rocket 4.2 15:32:46 10° N 15:38:22 46° W 15:43:48 10° SSW
Meteor 2-1 Rocket 4.3 15:37:24 10° N 15:42:56 84° E 15:48:38 10° S
Cosmos 1862 3.7 15:40:10 10° SSW 15:43:35 38° W 15:46:57 10° NNW
CENTAUR R/B 3.4 15:38:08 11° WNW 15:46:07 51° SW 15:52:51 10° SSE
ARIANE 6 FM1 Upper Stage 3.0 15:42:36 10° SW 15:46:59 50° WNW 15:51:13 10° NNE
Cosmos 2034 Rocket 4.4 15:41:28 10° N 15:47:38 69° E 15:53:49 10° SSE
Cosmos 44 3.1 15:44:12 10° SW 15:48:26 53° WNW 15:52:33 10° NNE
ASTEX 1 4.3 15:49:38 10° SSW 15:54:04 33° WSW 15:58:26 10° NW
Cosmos 1656 4.4 15:51:09 10° N 15:56:30 53° ENE 16:01:49 10° SSE
ACS3 Solar Sail 3.2 15:53:06 10° NW 15:57:19 19° W 16:01:33 10° SW
Meteor 2-3 Rocket 3.9 15:52:30 10° S 15:58:25 89° W 16:04:15 10° N
Okean 2 Rocket 3.8 15:55:40 10° NW 15:59:53 38° WSW 16:04:10 10° S
Cosmos 2228 4.3 15:57:01 10° NNE 16:00:53 39° E 16:04:48 10° SSE
H-2A R/B 3.3 15:57:26 10° N 16:01:21 80° WNW 16:05:19 10° SSW
BlueWalker 3 2.3 15:58:03 10° SW 16:01:42 66° SE 16:05:19 10° ENE
Sich 1 Rocket 4.1 15:57:43 10° NNW 16:01:56 44° WSW 16:06:16 10° S
SL-08 RB Rocket 3.8 15:57:58 10° N 16:02:22 54° W 16:06:52 10° SSW
Cosmos 1892 Rocket 3.8 15:59:19 10° S 16:03:42 73° E 16:08:02 10° NNE
Spot 2 4.3 16:01:34 10° S 16:05:28 46° WSW 16:09:20 10° NW
